Time,TemperatureF,DewpointF,PressureIn,WindDirection,WindDirectionDegrees,WindSpeedMPH,WindSpeedGustMPH,Humidity,HourlyPrecipIn,Conditions,Clouds,dailyrainin,SoftwareType,DateUTC
2013-03-09 00:14:00,38.6,29.0,30.05,North,353,2.0,-999.0,69,-99.99,,,0.12,weatherlink.com 1.10,2013-03-09 05:14:00,
2013-03-09 00:29:00,38.3,29.0,30.06,North,8,3.0,-999.0,68,-99.99,,,0.00,weatherlink.com 1.10,2013-03-09 05:29:00,
2013-03-09 00:44:00,38.2,28.0,30.07,NNE,23,7.0,-999.0,68,-99.99,,,0.00,weatherlink.com 1.10,2013-03-09 05:44:00,
2013-03-09 00:59:00,37.9,28.0,30.07,North,3,6.0,-999.0,67,-99.99,,,0.00,weatherlink.com 1.10,2013-03-09 05:59:00,
2013-03-09 01:14:00,38.0,28.0,30.06,North,5,4.0,-999.0,68,-99.99,,,0.00,weatherlink.com 1.10,2013-03-09 06:14:00,
2013-03-09 01:29:00,38.0,28.0,30.06,North,354,2.0,-999.0,68,-99.99,,,0.00,weatherlink.com 1.10,2013-03-09 06:29:00,
2013-03-09 01:44:00,37.7,28.0,30.06,North,10,1.0,-999.0,67,-99.99,,,0.00,weatherlink.com 1.10,2013-03-09 06:44:00,
2013-03-09 01:59:00,37.3,26.0,30.07,NE,34,6.0,-999.0,65,-99.99,,,0.00,weatherlink.com 1.10,2013-03-09 06:59:00,
2013-03-09 02:14:00,37.2,26.0,30.06,NNW,331,1.0,-999.0,65,-99.99,,,0.00,weatherlink.com 1.10,2013-03-09 07:14:00,
2013-03-09 02:29:00,36.8,26.0,30.06,NNE,19,3.0,-999.0,64,-99.99,,,0.00,weatherlink.com 1.10,2013-03-09 07:29:00,
2013-03-09 02:44:00,36.8,26.0,30.07,North,6,6.0,-999.0,65,-99.99,,,0.00,weatherlink.com 1.10,2013-03-09 07:44:00,
2013-03-09 02:59:00,36.9,26.0,30.06,NNW,340,0.0,-999.0,66,-99.99,,,0.00,weatherlink.com 1.10,2013-03-09 07:59:00,
2013-03-09 03:14:00,36.8,26.0,30.06,NNW,344,3.0,-999.0,66,-99.99,,,0.00,weatherlink.com 1.10,2013-03-09 08:14:00,
2013-03-09 03:29:00,36.6,26.0,30.07,NNW,330,6.0,-999.0,65,-99.99,,,0.00,weatherlink.com 1.10,2013-03-09 08:29:00,
2013-03-09 03:44:00,36.3,25.0,30.07,NW,309,4.0,-999.0,65,-99.99,,,0.00,weatherlink.com 1.10,2013-03-09 08:44:00,
2013-03-09 03:59:00,36.3,25.0,30.07,North,358,4.0,-999.0,65,-99.99,,,0.00,weatherlink.com 1.10,2013-03-09 08:59:00,
2013-03-09 04:14:00,36.0,25.0,30.09,North,358,0.0,-999.0,64,-99.99,,,0.00,weatherlink.com 1.10,2013-03-09 09:14:00,
2013-03-09 04:29:00,35.7,24.0,30.09,North,1,6.0,-999.0,63,-99.99,,,0.00,weatherlink.com 1.10,2013-03-09 09:29:00,
2013-03-09 04:44:00,35.5,24.0,30.10,NNW,346,3.0,-999.0,63,-99.99,,,0.00,weatherlink.com 1.10,2013-03-09 09:44:00,
2013-03-09 04:59:00,35.4,24.0,30.10,NNW,345,2.0,-999.0,63,-99.99,,,0.00,weatherlink.com 1.10,2013-03-09 09:59:00,
2013-03-09 05:14:00,35.4,24.0,30.11,North,6,3.0,-999.0,63,-99.99,,,0.00,weatherlink.com 1.10,2013-03-09 10:14:00,
2013-03-09 05:29:00,35.3,23.0,30.11,North,11,2.0,-999.0,62,-99.99,,,0.00,weatherlink.com 1.10,2013-03-09 10:29:00,
2013-03-09 05:44:00,34.9,23.0,30.11,NNE,24,5.0,-999.0,61,-99.99,,,0.00,weatherlink.com 1.10,2013-03-09 10:44:00,
2013-03-09 05:59:00,34.5,22.0,30.13,NNW,339,0.0,-999.0,60,-99.99,,,0.00,weatherlink.com 1.10,2013-03-09 10:59:00,
2013-03-09 06:14:00,34.4,21.0,30.13,NNE,24,2.0,-999.0,59,-99.99,,,0.00,weatherlink.com 1.10,2013-03-09 11:14:00,
2013-03-09 06:29:00,34.6,21.0,30.14,North,350,0.0,-999.0,58,-99.99,,,0.00,weatherlink.com 1.10,2013-03-09 11:29:00,
2013-03-09 06:44:00,34.9,21.0,30.14,NE,39,6.0,-999.0,57,-99.99,,,0.00,weatherlink.com 1.10,2013-03-09 11:44:00,
2013-03-09 06:59:00,35.3,22.0,30.15,North,8,1.0,-999.0,58,-99.99,,,0.00,weatherlink.com 1.10,2013-03-09 11:59:00,
2013-03-09 07:14:00,35.9,23.0,30.16,NNE,13,3.0,-999.0,59,-99.99,,,0.00,weatherlink.com 1.10,2013-03-09 12:14:00,
2013-03-09 07:29:00,36.2,23.0,30.16,North,353,3.0,-999.0,60,-99.99,,,0.00,weatherlink.com 1.10,2013-03-09 12:29:00,
2013-03-09 07:44:00,37.4,25.0,30.16,North,357,2.0,-999.0,62,-99.99,,,0.00,weatherlink.com 1.10,2013-03-09 12:44:00,
2013-03-09 07:59:00,37.1,25.0,30.17,NNE,19,6.0,-999.0,63,-99.99,,,0.00,weatherlink.com 1.10,2013-03-09 12:59:00,
2013-03-09 08:14:00,37.0,25.0,30.18,NNW,343,0.0,-999.0,62,-99.99,,,0.00,weatherlink.com 1.10,2013-03-09 13:14:00,
2013-03-09 08:29:00,37.4,25.0,30.18,NNE,12,4.0,-999.0,62,-99.99,,,0.00,weatherlink.com 1.10,2013-03-09 13:29:00,
2013-03-09 08:44:00,37.8,26.0,30.19,North,5,1.0,-999.0,62,-99.99,,,0.00,weatherlink.com 1.10,2013-03-09 13:44:00,
2013-03-09 08:59:00,37.7,26.0,30.18,NW,322,6.0,-999.0,64,-99.99,,,0.00,weatherlink.com 1.10,2013-03-09 13:59:00,
2013-03-09 09:14:00,37.6,25.0,30.18,North,355,3.0,-999.0,62,-99.99,,,0.00,weatherlink.com 1.10,2013-03-09 14:14:00,
2013-03-09 09:29:00,38.2,26.0,30.19,North,5,4.0,-999.0,63,-99.99,,,0.00,weatherlink.com 1.10,2013-03-09 14:29:00,
2013-03-09 09:44:00,38.4,27.0,30.19,North,10,5.0,-999.0,63,-99.99,,,0.00,weatherlink.com 1.10,2013-03-09 14:44:00,
2013-03-09 09:59:00,38.8,27.0,30.20,North,355,4.0,-999.0,63,-99.99,,,0.00,weatherlink.com 1.10,2013-03-09 14:59:00,
2013-03-09 10:14:00,39.8,28.0,30.19,North,358,3.0,-999.0,64,-99.99,,,0.00,weatherlink.com 1.10,2013-03-09 15:14:00,
2013-03-09 10:29:00,39.8,29.0,30.20,North,7,3.0,-999.0,65,-99.99,,,0.00,weatherlink.com 1.10,2013-03-09 15:29:00,
2013-03-09 10:44:00,40.3,29.0,30.19,NNE,17,1.0,-999.0,64,-99.99,,,0.00,weatherlink.com 1.10,2013-03-09 15:44:00,
2013-03-09 10:58:00,40.0,29.0,30.20,North,351,4.0,-999.0,65,-99.99,,,0.00,weatherlink.com 1.10,2013-03-09 15:58:00,
2013-03-09 11:13:00,39.4,28.0,30.21,North,349,5.0,-999.0,65,-99.99,,,0.00,weatherlink.com 1.10,2013-03-09 16:13:00,
2013-03-09 11:28:00,39.8,29.0,30.21,NNE,13,4.0,-999.0,65,-99.99,,,0.00,weatherlink.com 1.10,2013-03-09 16:28:00,
2013-03-09 11:43:00,40.6,30.0,30.21,NNE,14,2.0,-999.0,65,-99.99,,,0.00,weatherlink.com 1.10,2013-03-09 16:43:00,
2013-03-09 11:59:00,40.2,29.0,30.21,NNE,17,6.0,-999.0,65,-99.99,,,0.00,weatherlink.com 1.10,2013-03-09 16:59:00,
2013-03-09 12:14:00,40.3,29.0,30.21,North,8,4.0,-999.0,65,-99.99,,,0.00,weatherlink.com 1.10,2013-03-09 17:14:00,
2013-03-09 12:29:00,40.3,29.0,30.22,NNE,14,1.0,-999.0,65,-99.99,,,0.00,weatherlink.com 1.10,2013-03-09 17:29:00,
2013-03-09 12:44:00,40.6,29.0,30.22,North,356,0.0,-999.0,64,-99.99,,,0.00,weatherlink.com 1.10,2013-03-09 17:44:00,
2013-03-09 12:59:00,40.0,29.0,30.22,North,357,4.0,-999.0,64,-99.99,,,0.00,weatherlink.com 1.10,2013-03-09 17:59:00,
2013-03-09 13:14:00,39.8,29.0,30.22,NNW,328,5.0,-999.0,65,-99.99,,,0.00,weatherlink.com 1.10,2013-03-09 18:14:00,
2013-03-09 13:29:00,39.6,28.0,30.23,NNW,339,4.0,-999.0,64,-99.99,,,0.00,weatherlink.com 1.10,2013-03-09 18:29:00,
2013-03-09 13:44:00,39.6,28.0,30.22,NNW,345,1.0,-999.0,63,-99.99,,,0.01,weatherlink.com 1.10,2013-03-09 18:44:00,
2013-03-09 13:59:00,40.0,29.0,30.22,NNE,12,0.0,-999.0,64,-99.99,,,0.02,weatherlink.com 1.10,2013-03-09 18:59:00,
2013-03-09 14:14:00,40.6,30.0,30.22,NNE,14,4.0,-999.0,65,-99.99,,,0.02,weatherlink.com 1.10,2013-03-09 19:14:00,
2013-03-09 14:29:00,41.4,31.0,30.22,NNE,14,5.0,-999.0,67,-99.99,,,0.02,weatherlink.com 1.10,2013-03-09 19:29:00,
2013-03-09 14:44:00,41.8,32.0,30.22,North,1,0.0,-999.0,67,-99.99,,,0.02,weatherlink.com 1.10,2013-03-09 19:44:00,
2013-03-09 14:59:00,42.6,33.0,30.22,North,5,1.0,-999.0,68,-99.99,,,0.02,weatherlink.com 1.10,2013-03-09 19:59:00,
2013-03-09 15:14:00,42.9,33.0,30.23,NE,43,1.0,-999.0,68,-99.99,,,0.02,weatherlink.com 1.10,2013-03-09 20:14:00,
2013-03-09 15:29:00,42.7,33.0,30.23,North,10,4.0,-999.0,68,-99.99,,,0.02,weatherlink.com 1.10,2013-03-09 20:29:00,
2013-03-09 15:44:00,42.4,32.0,30.22,North,2,2.0,-999.0,68,-99.99,,,0.02,weatherlink.com 1.10,2013-03-09 20:44:00,
2013-03-09 15:59:00,42.4,32.0,30.23,NNE,21,1.0,-999.0,68,-99.99,,,0.02,weatherlink.com 1.10,2013-03-09 20:59:00,
2013-03-09 16:15:00,41.8,32.0,30.23,NNE,15,0.0,-999.0,69,-99.99,,,0.02,weatherlink.com 1.10,2013-03-09 21:15:00,
2013-03-09 16:29:00,41.5,32.0,30.24,NNE,12,2.0,-999.0,68,-99.99,,,0.02,weatherlink.com 1.10,2013-03-09 21:29:00,
2013-03-09 16:44:00,40.7,31.0,30.24,NNE,31,6.0,-999.0,69,-99.99,,,0.02,weatherlink.com 1.10,2013-03-09 21:44:00,
2013-03-09 16:59:00,39.6,30.0,30.25,North,4,0.0,-999.0,68,-99.99,,,0.02,weatherlink.com 1.10,2013-03-09 21:59:00,
2013-03-09 17:14:00,38.9,29.0,30.25,NE,56,2.0,-999.0,67,-99.99,,,0.02,weatherlink.com 1.10,2013-03-09 22:14:00,
2013-03-09 17:29:00,37.9,28.0,30.26,NNE,16,0.0,-999.0,67,-99.99,,,0.02,weatherlink.com 1.10,2013-03-09 22:29:00,
2013-03-09 17:44:00,37.1,26.0,30.27,North,359,0.0,-999.0,65,-99.99,,,0.02,weatherlink.com 1.10,2013-03-09 22:44:00,
2013-03-09 17:59:00,36.4,25.0,30.28,ENE,60,0.0,-999.0,63,-99.99,,,0.02,weatherlink.com 1.10,2013-03-09 22:59:00,
2013-03-09 18:14:00,35.9,23.0,30.28,NNE,33,0.0,-999.0,61,-99.99,,,0.02,weatherlink.com 1.10,2013-03-09 23:14:00,
2013-03-09 18:29:00,35.4,22.0,30.29,NE,39,0.0,-999.0,58,-99.99,,,0.02,weatherlink.com 1.10,2013-03-09 23:29:00,
2013-03-09 18:44:00,34.8,20.0,30.29,North,3,0.0,-999.0,56,-99.99,,,0.02,weatherlink.com 1.10,2013-03-09 23:44:00,
2013-03-09 18:59:00,34.4,19.0,30.29,NNE,13,0.0,-999.0,54,-99.99,,,0.02,weatherlink.com 1.10,2013-03-09 23:59:00,
2013-03-09 19:14:00,34.0,18.0,30.29,NNE,29,0.0,-999.0,52,-99.99,,,0.02,weatherlink.com 1.10,2013-03-10 00:14:00,
2013-03-09 19:29:00,33.5,17.0,30.29,NNE,28,0.0,-999.0,51,-99.99,,,0.02,weatherlink.com 1.10,2013-03-10 00:29:00,
2013-03-09 19:44:00,33.0,16.0,30.29,NNE,28,0.0,-999.0,50,-99.99,,,0.02,weatherlink.com 1.10,2013-03-10 00:44:00,
2013-03-09 19:59:00,32.6,15.0,30.30,NNE,28,0.0,-999.0,48,-99.99,,,0.02,weatherlink.com 1.10,2013-03-10 00:59:00,
2013-03-09 20:14:00,31.8,14.0,30.30,NNE,29,0.0,-999.0,48,-99.99,,,0.02,weatherlink.com 1.10,2013-03-10 01:14:00,
2013-03-09 20:29:00,31.4,13.0,30.30,NNE,29,0.0,-999.0,46,-99.99,,,0.02,weatherlink.com 1.10,2013-03-10 01:29:00,
2013-03-09 20:44:00,31.0,12.0,30.30,NNE,29,0.0,-999.0,45,-99.99,,,0.02,weatherlink.com 1.10,2013-03-10 01:44:00,
2013-03-09 20:59:00,30.7,10.0,30.30,NNE,29,0.0,-999.0,43,-99.99,,,0.02,weatherlink.com 1.10,2013-03-10 01:59:00,
2013-03-09 21:14:00,30.6,10.0,30.30,NNE,29,0.0,-999.0,42,-99.99,,,0.02,weatherlink.com 1.10,2013-03-10 02:14:00,
2013-03-09 21:29:00,30.2,9.0,30.31,NNE,29,0.0,-999.0,41,-99.99,,,0.02,weatherlink.com 1.10,2013-03-10 02:29:00,
2013-03-09 21:44:00,29.9,8.0,30.31,NNE,29,0.0,-999.0,40,-99.99,,,0.02,weatherlink.com 1.10,2013-03-10 02:44:00,
2013-03-09 21:59:00,29.7,7.0,30.31,NNE,25,0.0,-999.0,39,-99.99,,,0.02,weatherlink.com 1.10,2013-03-10 02:59:00,
2013-03-09 22:14:00,29.5,7.0,30.32,NNE,25,0.0,-999.0,38,-99.99,,,0.02,weatherlink.com 1.10,2013-03-10 03:14:00,
2013-03-09 22:29:00,30.1,6.0,30.32,NNE,12,0.0,-999.0,36,-99.99,,,0.02,weatherlink.com 1.10,2013-03-10 03:29:00,
2013-03-09 22:44:00,30.8,6.0,30.31,NNE,12,0.0,-999.0,35,-99.99,,,0.02,weatherlink.com 1.10,2013-03-10 03:44:00,
2013-03-09 22:59:00,30.5,5.0,30.31,NNE,12,0.0,-999.0,34,-99.99,,,0.02,weatherlink.com 1.10,2013-03-10 03:59:00,
2013-03-09 23:14:00,29.6,5.0,30.31,NNE,12,0.0,-999.0,35,-99.99,,,0.02,weatherlink.com 1.10,2013-03-10 04:14:00,
2013-03-09 23:29:00,28.9,4.0,30.31,NNE,12,0.0,-999.0,35,-99.99,,,0.02,weatherlink.com 1.10,2013-03-10 04:29:00,
2013-03-09 23:44:00,28.6,4.0,30.31,NNE,12,0.0,-999.0,35,-99.99,,,0.02,weatherlink.com 1.10,2013-03-10 04:44:00,
2013-03-09 23:59:00,29.2,3.0,30.31,WNW,298,0.0,-999.0,33,-99.99,,,0.02,weatherlink.com 1.10,2013-03-10 04:59:00,